EW5684 Weather Reports


Display with metric or nautical units.
time (UTC)temp
F
wind
direction
speed
MPH
gust
MPH
rain 1hr
in
rain 24hr
in
rain mn
in
humidity
%
barometer
mb
20260906014306 73 0 0.0 0.0 0.00 0.00 0.00 52 1021.2
20260906014024 73 0 0.0 0.0 0.00 0.00 0.00 53 1021.2
20260906013306 73 0 0.0 3.0 0.00 0.00 0.00 53 1021.2
20260906013025 72 0 2.0 3.0 0.00 0.00 0.00 54 1021.2
20260906012306 72 0 3.0 3.0 0.00 0.00 0.00 54 1021.2
20260906011807 72 0 1.0 3.0 0.00 0.00 0.00 54 1021.1
20260906011305 72 0 2.0 3.0 0.00 0.00 0.00 54 1021.1
20260906010806 73 0 2.0 3.0 0.00 0.00 0.00 52 1021.2
20260906010306 74 0 1.0 3.0 0.00 0.00 0.00 52 1021.2
20260906010247 74 0 0.0 0.0 0.00 0.00 0.00 52 1021.2
20260906005307 75 0 0.0 2.0 0.00 0.00 0.00 51 1021.2
20260906005030 75 0 2.0 2.0 0.00 0.00 0.00 50 1021.2
20260906004527 76 0 0.0 0.0 0.00 0.00 0.00 47 1021.3
20260906003806 77 0 0.0 2.0 0.00 0.00 0.00 47 1021.3
20260906003525 77 0 1.0 3.0 0.00 0.00 0.00 47 1021.2
20260906002806 77 0 2.0 3.0 0.00 0.00 0.00 48 1021.1
20260906002306 76 0 1.0 5.0 0.00 0.00 0.00 48 1021.0
20260906001805 76 0 3.0 5.0 0.00 0.00 0.00 49 1021.0
20260906001306 76 0 2.0 4.0 0.00 0.00 0.00 49 1021.0
20260906000806 75 0 3.0 4.0 0.00 0.00 0.00 50 1021.1
20260906000524 75 0 0.0 0.0 0.00 0.00 0.00 51 1021.0
20260905235805 75 0 0.0 0.0 0.00 0.00 0.00 51 1021.1
20260905235306 75 0 0.0 0.0 0.00 0.00 0.00 51 1021.1
20260905234805 76 0 0.0 0.0 0.00 0.00 0.00 50 1021.1
20260905234305 76 0 0.0 0.0 0.00 0.00 0.00 50 1021.0
20260905233804 76 0 0.0 0.0 0.00 0.00 0.00 50 1021.0
20260905233305 76 0 0.0 0.0 0.00 0.00 0.00 50 1020.8
20260905233029 76 0 0.0 0.0 0.00 0.00 0.00 50 1020.8
20260905232306 76 0 0.0 0.0 0.00 0.00 0.00 50 1020.8
20260905231804 76 0 0.0 1.0 0.00 0.00 0.00 49 1020.8
20260905231526 76 0 0.0 3.0 0.00 0.00 0.00 49 1020.8
20260905230804 76 0 1.0 3.0 0.00 0.00 0.00 48 1020.8
20260905230304 77 0 2.0 3.0 0.00 0.00 0.00 47 1020.7
20260905225804 78 0 0.0 3.0 0.00 0.00 0.00 47 1020.7
20260905225306 78 0 0.0 2.0 0.00 0.00 0.00 45 1020.6
20260905225021 78 0 0.0 2.0 0.00 0.00 0.00 45 1020.6
20260905224305 79 0 1.0 2.0 0.00 0.00 0.00 45 1020.5
20260905224025 80 0 1.0 2.0 0.00 0.00 0.00 44 1020.5
20260905223522 80 0 0.0 3.0 0.00 0.00 0.00 42 1020.6
20260905223024 80 0 2.0 3.0 0.00 0.00 0.00 42 1020.6
20260905222523 80 0 2.0 3.0 0.00 0.00 0.00 42 1020.5
20260905221804 81 0 2.0 3.0 0.00 0.00 0.00 41 1020.5
20260905221304 81 0 2.0 3.0 0.00 0.00 0.00 41 1020.5
20260905220804 81 0 1.0 2.0 0.00 0.00 0.00 41 1020.5
20260905220747 81 0 1.0 3.0 0.00 0.00 0.00 41 1020.4
20260905215805 81 0 2.0 3.0 0.00 0.00 0.00 41 1020.3
20260905215306 81 0 2.0 3.0 0.00 0.00 0.00 41 1020.3
20260905214802 81 0 1.0 2.0 0.00 0.00 0.00 42 1020.4
20260905214525 81 0 2.0 3.0 0.00 0.00 0.00 41 1020.4
20260905213805 81 0 1.0 3.0 0.00 0.00 0.00 42 1020.3
20260905213304 81 0 0.0 1.0 0.00 0.00 0.00 42 1020.4
20260905213022 81 0 0.0 1.0 0.00 0.00 0.00 42 1020.3
20260905212306 81 0 0.0 2.0 0.00 0.00 0.00 42 1020.3
20260905211804 81 0 1.0 2.0 0.00 0.00 0.00 42 1020.2
20260905211305 81 0 0.0 1.0 0.00 0.00 0.00 42 1020.2
20260905210804 82 0 0.0 2.0 0.00 0.00 0.00 41 1020.3
20260905210305 83 0 1.0 2.0 0.00 0.00 0.00 40 1020.3
20260905205805 83 0 0.0 0.0 0.00 0.00 0.00 39 1020.2
20260905205306 83 0 0.0 0.0 0.00 0.00 0.00 39 1020.1
20260905204804 83 0 0.0 2.0 0.00 0.00 0.00 39 1020.0
20260905204304 83 0 1.0 3.0 0.00 0.00 0.00 38 1020.1
20260905203805 83 0 1.0 4.0 0.00 0.00 0.00 38 1019.9
20260905203305 84 0 2.0 4.0 0.00 0.00 0.00 38 1019.9
20260905203022 84 0 3.0 5.0 0.00 0.00 0.00 38 1019.9
20260905202306 84 0 4.0 5.0 0.00 0.00 0.00 39 1019.8
20260905202024 84 0 3.0 5.0 0.00 0.00 0.00 39 1019.7
20260905201304 84 0 3.0 6.0 0.00 0.00 0.00 38 1019.6
20260905200805 84 0 4.0 6.0 0.00 0.00 0.00 38 1019.7
20260905200752 84 0 3.0 4.0 0.00 0.00 0.00 38 1019.7
20260905195805 85 0 2.0 4.0 0.00 0.00 0.00 38 1019.6
20260905195307 85 0 3.0 4.0 0.00 0.00 0.00 38 1019.5
20260905194804 85 0 2.0 5.0 0.00 0.00 0.00 38 1019.5
20260905194523 85 0 4.0 5.0 0.00 0.00 0.00 38 1019.4
20260905193805 85 0 2.0 6.0 0.00 0.00 0.00 37 1019.2
20260905193304 85 25 4.0 7.0 0.00 0.00 0.00 37 1019.0
20260905193022 86 35 4.0 7.0 0.00 0.00 0.00 36 1018.9
20260905192306 86 0 5.0 7.0 0.00 0.00 0.00 36 1018.9
20260905191805 86 0 5.0 7.0 0.00 0.00 0.00 36 1018.8
20260905191304 87 0 4.0 5.0 0.00 0.00 0.00 35 1018.7
20260905190804 87 0 3.0 5.0 0.00 0.00 0.00 34 1018.6
20260905190304 87 18 5.0 5.0 0.00 0.00 0.00 34 1018.6
20260905185804 87 0 3.0 7.0 0.00 0.00 0.00 34 1018.4
20260905185509 87 0 4.0 6.0 0.00 0.00 0.00 33 1018.4
20260905185500 87 83 4.0 7.0 0.00 0.00 0.00 34 1018.4
20260905184541 88 0 4.0 6.0 0.00 0.00 0.00 33 1018.4
20260905183804 88 68 4.0 6.0 0.00 0.00 0.00 33 1018.3
20260905183304 88 59 4.0 7.0 0.00 0.00 0.00 32 1018.2
20260905182804 88 82 5.0 7.0 0.00 0.00 0.00 32 1018.2
20260905182529 88 75 4.0 6.0 0.00 0.00 0.00 32 1018.1
20260905181804 89 65 5.0 6.0 0.00 0.00 0.00 32 1018.0
20260905181533 89 34 4.0 5.0 0.00 0.00 0.00 32 1018.0
20260905180805 89 66 3.0 9.0 0.00 0.00 0.00 31 1017.9
20260905180304 89 49 4.0 9.0 0.00 0.00 0.00 31 1017.9
20260905180028 90 44 5.0 7.0 0.00 0.00 0.00 31 1017.8
20260905175306 90 69 6.0 7.0 0.00 0.00 0.00 31 1017.7
20260905174804 90 17 4.0 7.0 0.00 0.00 0.00 31 1017.6
20260905174305 90 31 4.0 7.0 0.00 0.00 0.00 31 1017.6
20260905173805 91 45 4.0 7.0 0.00 0.00 0.00 31 1017.6
20260905173304 91 68 5.0 7.0 0.00 0.00 0.00 31 1017.6
20260905172805 91 54 4.0 6.0 0.00 0.00 0.00 31 1017.5
20260905172305 92 72 4.0 6.0 0.00 0.00 0.00 31 1017.5
20260905171804 92 80 3.0 7.0 0.00 0.00 0.00 30 1017.5
20260905171530 92 54 3.0 9.0 0.00 0.00 0.00 30 1017.3
20260905170804 93 65 5.0 9.0 0.00 0.00 0.00 29 1017.4
20260905170304 94 39 4.0 9.0 0.00 0.00 0.00 28 1017.4
20260905165805 95 73 5.0 9.0 0.00 0.00 0.00 27 1017.3
20260905165306 95 58 2.0 3.0 0.00 0.00 0.00 24 1017.4
20260905164804 96 257 1.0 2.0 0.00 0.00 0.00 21 1017.3
20260905164305 96 257 1.0 5.0 0.00 0.00 0.00 21 1017.4
20260905163805 96 258 3.0 5.0 0.00 0.00 0.00 21 1017.3
20260905163305 96 336 1.0 3.0 0.00 0.00 0.00 21 1017.4
20260905162805 96 312 2.0 4.0 0.00 0.00 0.00 22 1017.3
20260905162526 96 274 2.0 4.0 0.00 0.00 0.00 22 1017.3
20260905161804 96 271 2.0 4.0 0.00 0.00 0.00 22 1017.3
20260905161305 96 276 0.0 3.0 0.00 0.00 0.00 22 1017.3
20260905160804 96 278 2.0 3.0 0.00 0.00 0.00 23 1017.3
20260905160304 96 269 2.0 4.0 0.00 0.00 0.00 23 1017.3
20260905155804 95 250 2.0 5.0 0.00 0.00 0.00 23 1017.3
20260905155742 95 248 4.0 5.0 0.00 0.00 0.00 23 1017.4
20260905154805 96 241 2.0 4.0 0.00 0.00 0.00 22 1017.4
20260905154304 96 235 1.0 4.0 0.00 0.00 0.00 23 1017.4
20260905153805 95 230 3.0 6.0 0.00 0.00 0.00 23 1017.2
20260905153525 95 202 0.0 6.0 0.00 0.00 0.00 23 1017.3
20260905153249 96 199 3.0 6.0 0.00 0.00 0.00 23 1017.4
20260905152306 96 152 2.0 6.0 0.00 0.00 0.00 22 1017.3
20260905151805 96 241 2.0 6.0 0.00 0.00 0.00 22 1017.4
20260905151304 96 223 2.0 4.0 0.00 0.00 0.00 23 1017.4
20260905151024 96 154 1.0 4.0 0.00 0.00 0.00 22 1017.4
20260905150305 97 85 2.0 3.0 0.00 0.00 0.00 21 1017.5
20260905145805 96 357 1.0 4.0 0.00 0.00 0.00 23 1017.5
20260905145306 97 347 2.0 4.0 0.00 0.00 0.00 23 1017.5
20260905144804 95 324 3.0 6.0 0.00 0.00 0.00 25 1017.6
20260905144304 94 247 4.0 6.0 0.00 0.00 0.00 26 1017.6
20260905143805 95 243 4.0 5.0 0.00 0.00 0.00 26 1017.6
20260905143753 95 203 4.0 5.0 0.00 0.00 0.00 26 1017.6
20260905142804 95 248 3.0 7.0 0.00 0.00 0.00 26 1017.6
20260905142306 95 196 4.0 7.0 0.00 0.00 0.00 26 1017.6
20260905141805 95 251 2.0 6.0 0.00 0.00 0.00 26 1017.7
20260905141304 94 173 1.0 5.0 0.00 0.00 0.00 26 1017.7
20260905140805 94 168 3.0 7.0 0.00 0.00 0.00 26 1017.8
20260905140304 94 219 4.0 7.0 0.00 0.00 0.00 27 1017.8
20260905135804 94 245 5.0 6.0 0.00 0.00 0.00 27 1017.7
20260905135306 94 226 3.0 6.0 0.00 0.00 0.00 28 1017.8
20260905134804 94 164 2.0 5.0 0.00 0.00 0.00 28 1017.8
20260905134305 93 268 2.0 6.0 0.00 0.00 0.00 28 1017.8
20260905133804 94 172 4.0 6.0 0.00 0.00 0.00 28 1017.9
20260905133304 94 172 3.0 5.0 0.00 0.00 0.00 28 1017.9
20260905132806 93 127 3.0 5.0 0.00 0.00 0.00 29 1018.0
20260905132306 93 258 2.0 7.0 0.00 0.00 0.00 29 1018.1
20260905131800 93 247 4.0 7.0 0.00 0.00 0.00 29 1018.1
20260905131300 93 227 4.0 7.0 0.00 0.00 0.00 29 1018.1
20260905130757 92 214 4.0 7.0 0.00 0.00 0.00 30 1018.2
20260905130258 92 197 1.0 9.0 0.00 0.00 0.00 30 1018.2
20260905125755 92 189 4.0 9.0 0.00 0.00 0.00 30 1018.3
20260905125518 92 254 4.0 6.0 0.00 0.00 0.00 30 1018.3
20260905124953 92 183 0.0 6.0 0.00 0.00 0.00 32 1018.4
20260905124233 91 210 3.0 6.0 0.00 0.00 0.00 31 1018.4
20260905123734 92 154 4.0 7.0 0.00 0.00 0.00 31 1018.4
20260905123235 92 196 4.0 7.0 0.00 0.00 0.00 32 1018.4
20260905122735 91 111 4.0 5.0 0.00 0.00 0.00 32 1018.3
20260905122234 92 188 2.0 6.0 0.00 0.00 0.00 31 1018.3
20260905121956 93 154 4.0 6.0 0.00 0.00 0.00 32 1018.4
20260905121455 91 168 1.0 5.0 0.00 0.00 0.00 31 1018.4
20260905120954 91 186 2.0 5.0 0.00 0.00 0.00 32 1018.6
20260905120234 91 158 3.0 5.0 0.00 0.00 0.00 33 1018.5
20260905115739 90 192 4.0 9.0 0.00 0.00 0.00 35 1018.5
20260905115734 90 258 2.0 9.0 0.00 0.00 0.00 33 1018.5
20260905114734 90 202 5.0 6.0 0.00 0.00 0.00 35 1018.6
20260905114234 89 178 2.0 6.0 0.00 0.00 0.00 35 1018.5
20260905113733 89 169 4.0 6.0 0.00 0.00 0.00 34 1018.7
20260905113502 88 188 1.0 9.0 0.00 0.00 0.00 35 1018.7
20260905112733 89 179 7.0 9.0 0.00 0.00 0.00 35 1018.7
20260905112233 89 216 2.0 11.0 0.00 0.00 0.00 37 1018.8
20260905111733 88 162 1.0 11.0 0.00 0.00 0.00 37 1018.8
20260905111453 88 200 6.0 9.0 0.00 0.00 0.00 35 1018.8
20260905110732 88 165 2.0 6.0 0.00 0.00 0.00 35 1018.9
20260905110233 88 189 1.0 6.0 0.00 0.00 0.00 35 1018.9
20260905105953 89 145 1.0 5.0 0.00 0.00 0.00 36 1018.9
20260905105232 87 120 3.0 7.0 0.00 0.00 0.00 37 1018.9
20260905104743 87 183 6.0 7.0 0.00 0.00 0.00 37 1019.0
20260905104232 87 248 2.0 6.0 0.00 0.00 0.00 37 1019.0
20260905103732 88 175 4.0 11.0 0.00 0.00 0.00 35 1019.0
20260905103232 89 178 2.0 11.0 0.00 0.00 0.00 35 1019.1
20260905102732 88 145 1.0 7.0 0.00 0.00 0.00 36 1019.1
20260905102231 88 149 2.0 6.0 0.00 0.00 0.00 36 1019.2
20260905101731 87 138 2.0 6.0 0.00 0.00 0.00 37 1019.2
20260905101231 86 161 3.0 6.0 0.00 0.00 0.00 38 1019.4
20260905100954 86 193 3.0 6.0 0.00 0.00 0.00 39 1019.2
20260905100231 86 199 4.0 6.0 0.00 0.00 0.00 39 1019.2
20260905095730 86 175 2.0 6.0 0.00 0.00 0.00 41 1019.2
20260905095230 85 220 3.0 6.0 0.00 0.00 0.00 39 1019.2
20260905094949 86 199 3.0 6.0 0.00 0.00 0.00 37 1019.4
20260905094230 85 180 0.0 6.0 0.00 0.00 0.00 38 1019.4
20260905094002 85 147 3.0 6.0 0.00 0.00 0.00 38 1019.4
20260905093230 85 124 4.0 6.0 0.00 0.00 0.00 38 1019.5
20260905092958 86 195 4.0 6.0 0.00 0.00 0.00 38 1019.4
20260905092231 86 189 2.0 5.0 0.00 0.00 0.00 37 1019.4
20260905091730 85 111 3.0 5.0 0.00 0.00 0.00 40 1019.4
20260905091229 83 210 1.0 6.0 0.00 0.00 0.00 41 1019.4
20260905090730 83 210 4.0 6.0 0.00 0.00 0.00 41 1019.2
20260905090230 84 166 2.0 5.0 0.00 0.00 0.00 41 1019.5
20260905085729 85 171 1.0 4.0 0.00 0.00 0.00 40 1019.4
20260905085451 84 102 3.0 4.0 0.00 0.00 0.00 43 1019.4
20260905084740 83 161 2.0 4.0 0.00 0.00 0.00 45 1019.4
20260905084229 82 159 1.0 4.0 0.00 0.00 0.00 46 1019.4
20260905083729 82 157 1.0 4.0 0.00 0.00 0.00 47 1019.2
20260905083449 81 206 1.0 4.0 0.00 0.00 0.00 48 1019.4
20260905082728 80 204 1.0 4.0 0.00 0.00 0.00 49 1019.4
20260905082228 80 213 1.0 4.0 0.00 0.00 0.00 48 1019.4
20260905081947 80 226 3.0 4.0 0.00 0.00 0.00 49 1019.1
20260905081228 80 173 2.0 4.0 0.00 0.00 0.00 49 1019.2
20260905080729 79 183 1.0 4.0 0.00 0.00 0.00 50 1019.2
20260905080229 79 203 2.0 4.0 0.00 0.00 0.00 50 1019.1
20260905075729 79 203 1.0 3.0 0.00 0.00 0.00 50 1019.1
20260905075228 78 197 1.0 4.0 0.00 0.00 0.00 50 1019.0
20260905074950 78 220 2.0 4.0 0.00 0.00 0.00 51 1019.0
20260905074228 77 214 1.0 3.0 0.00 0.00 0.00 52 1019.0
20260905073727 76 209 1.0 4.0 0.00 0.00 0.00 53 1019.1
20260905073228 76 207 3.0 4.0 0.00 0.00 0.00 53 1019.0
20260905072728 76 190 3.0 5.0 0.00 0.00 0.00 52 1019.0
20260905072227 77 202 4.0 5.0 0.00 0.00 0.00 51 1019.0
20260905071728 77 123 1.0 4.0 0.00 0.00 0.00 51 1019.0
20260905071226 77 123 2.0 4.0 0.00 0.00 0.00 51 1019.0
20260905070726 76 114 2.0 3.0 0.00 0.00 0.00 51 1019.0
20260905070227 76 110 1.0 3.0 0.00 0.00 0.00 51 1019.0
20260905065727 75 106 1.0 3.0 0.00 0.00 0.00 52 1019.1
20260905065227 74 104 1.0 3.0 0.00 0.00 0.00 52 1019.1
20260905064727 74 0 2.0 3.0 0.00 0.00 0.00 53 1019.1
20260905064227 73 106 0.0 3.0 0.00 0.00 0.00 54 1019.0
20260905063838 69 0 0.0 0.0 0.00 0.00 0.00 58 1018.5
20260905063827 71 0 3.0 3.0 0.00 0.00 0.00 57 1018.8
20260905063821 71 0 1.0 3.0 0.00 0.00 0.00 57 1018.9
20260905063816 71 0 2.0 3.0 0.00 0.00 0.00 56 1019.0
20260905063810 72 0 1.0 3.0 0.00 0.00 0.00 56 1019.0
20260905063806 72 0 2.0 3.0 0.00 0.00 0.00 55 1019.0
20260905063800 72 0 0.0 2.0 0.00 0.00 0.00 55 1019.0
20260905063755 73 0 2.0 3.0 0.00 0.00 0.00 55 1019.1
20260905063309 70 0 1.0 2.0 0.00 0.00 0.00 58 1018.9
20260905063253 70 0 1.0 3.0 0.00 0.00 0.00 58 1018.9
20260905063247 70 0 2.0 3.0 0.00 0.00 0.00 58 1018.8
20260905063238 69 0 0.0 0.0 0.00 0.00 0.00 58 1018.7
20260905063232 69 0 1.0 2.0 0.00 0.00 0.00 58 1018.7
20260905063226 72 0 1.0 3.0 0.00 0.00 0.00 55 1019.1
20260905052725 69 0 0.0 0.0 0.00 0.00 0.00 58 1018.5
20260905052224 69 0 0.0 0.0 0.00 0.00 0.00 58 1018.5
20260905051725 69 0 0.0 0.0 0.00 0.00 0.00 58 1018.3
20260905051224 69 0 0.0 0.0 0.00 0.00 0.00 58 1018.3
20260905050725 69 0 0.0 0.0 0.00 0.00 0.00 58 1018.2
20260905050225 69 0 0.0 1.0 0.00 0.00 0.00 59 1018.2
20260905045724 69 0 1.0 1.0 0.00 0.00 0.00 59 1018.1
20260905045224 69 0 0.0 0.0 0.00 0.00 0.00 59 1018.1
20260905044947 69 0 0.0 0.0 0.00 0.00 0.00 59 1018.1
20260905044224 69 0 0.0 2.0 0.00 0.00 0.00 58 1018.2
20260905043724 69 0 0.0 2.0 0.00 0.00 0.00 58 1018.1
20260905043224 69 0 0.0 2.0 0.00 0.00 0.00 58 1018.0
20260905042724 69 0 0.0 2.0 0.00 0.00 0.00 58 1018.0
20260905042449 69 0 0.0 2.0 0.00 0.00 0.00 58 1018.1
20260905041723 69 0 2.0 2.0 0.00 0.00 0.00 58 1018.0
20260905041711 69 0 1.0 2.0 0.00 0.00 0.00 58 1018.0
20260905040723 70 0 0.0 2.0 0.00 0.00 0.00 58 1018.1
20260905040223 70 0 0.0 1.0 0.00 0.00 0.00 58 1018.0
20260905035723 70 0 0.0 1.0 0.00 0.00 0.00 58 1018.1
20260905035223 70 0 0.0 2.0 0.00 0.00 0.00 58 1018.1
20260905034723 70 0 1.0 2.0 0.00 0.00 0.00 58 1018.0
20260905034223 70 0 0.0 0.0 0.00 0.00 0.00 58 1018.0
20260905033721 70 0 0.0 1.0 0.00 0.00 0.00 58 1018.1
20260905033221 70 0 0.0 1.0 0.00 0.00 0.00 58 1018.2
20260905032721 71 0 0.0 2.0 0.00 0.00 0.00 57 1018.1
20260905032221 71 0 0.0 3.0 0.00 0.00 0.00 57 1018.1
20260905031720 71 0 2.0 3.0 0.00 0.00 0.00 57 1018.1
20260905031221 71 0 2.0 3.0 0.00 0.00 0.00 57 1018.2
20260905030720 71 0 1.0 3.0 0.00 0.00 0.00 57 1018.3
20260905030220 71 0 2.0 3.0 0.00 0.00 0.00 57 1018.2
20260905025720 71 0 0.0 2.0 0.00 0.00 0.00 57 1018.2
20260905025220 71 0 0.0 3.0 0.00 0.00 0.00 57 1018.1
20260905024721 71 0 2.0 3.0 0.00 0.00 0.00 57 1018.2
20260905024220 71 0 2.0 2.0 0.00 0.00 0.00 57 1018.3
20260905023720 71 0 0.0 2.0 0.00 0.00 0.00 57 1018.4
20260905023219 71 0 1.0 2.0 0.00 0.00 0.00 57 1018.3
20260905022719 71 0 0.0 0.0 0.00 0.00 0.00 57 1018.2
20260905022220 71 0 0.0 0.0 0.00 0.00 0.00 57 1018.2
20260905021719 71 0 0.0 0.0 0.00 0.00 0.00 57 1018.3
20260905021219 71 0 0.0 0.0 0.00 0.00 0.00 58 1018.3
20260905020719 71 0 0.0 1.0 0.00 0.00 0.00 57 1018.3
20260905020221 71 0 1.0 1.0 0.00 0.00 0.00 57 1018.2
20260905015939 71 0 0.0 3.0 0.00 0.00 0.00 57 1018.2
20260905015220 71 0 1.0 3.0 0.00 0.00 0.00 57 1018.3